Time,TemperatureF,DewpointF,PressureIn,WindDirection,WindDirectionDegrees,WindSpeedMPH,WindSpeedGustMPH,Humidity,HourlyPrecipIn,Conditions,Clouds,dailyrainin,SoftwareType,DateUTC
2013-05-12 00:02:00,53.0,-99.9,30.11,NNE,12,1.0,4.0,-999,-99.99,,,-99.99,,2013-05-12 07:02:00,
2013-05-12 00:11:00,53.0,-99.9,30.11,ENE,68,2.0,4.0,-999,-99.99,,,-99.99,,2013-05-12 07:11:00,
2013-05-12 00:22:00,53.0,-99.9,30.11,NE,46,3.0,5.0,-999,-99.99,,,-99.99,,2013-05-12 07:22:00,
2013-05-12 00:32:00,53.0,-99.9,30.11,North,7,4.0,5.0,-999,-99.99,,,-99.99,,2013-05-12 07:32:00,
2013-05-12 00:42:00,53.0,-99.9,30.11,NNE,14,3.0,4.0,-999,-99.99,,,-99.99,,2013-05-12 07:42:00,
2013-05-12 00:52:00,54.0,-99.9,30.10,NE,48,2.0,3.0,-999,-99.99,,,-99.99,,2013-05-12 07:52:00,
2013-05-12 01:02:00,54.0,-99.9,30.11,NE,54,-999.0,4.0,-999,-99.99,,,-99.99,,2013-05-12 08:02:00,
2013-05-12 01:11:00,54.0,-99.9,30.11,SSE,149,6.0,8.0,-999,-99.99,,,-99.99,,2013-05-12 08:11:00,
2013-05-12 01:21:00,54.0,-99.9,30.11,SE,145,6.0,9.0,-999,-99.99,,,-99.99,,2013-05-12 08:21:00,
2013-05-12 01:32:00,54.0,-99.9,30.11,SE,138,6.0,8.0,-999,-99.99,,,-99.99,,2013-05-12 08:32:00,
2013-05-12 01:42:00,54.0,-99.9,30.11,SE,143,7.0,8.0,-999,-99.99,,,-99.99,,2013-05-12 08:42:00,
2013-05-12 01:53:00,54.0,-99.9,30.11,SE,134,5.0,7.0,-999,-99.99,,,-99.99,,2013-05-12 08:53:00,
2013-05-12 02:01:00,54.0,-99.9,30.10,SE,145,-999.0,3.0,-999,-99.99,,,-99.99,,2013-05-12 09:01:00,
2013-05-12 02:11:00,55.0,-99.9,30.10,NNW,331,1.0,2.0,-999,-99.99,,,-99.99,,2013-05-12 09:11:00,
2013-05-12 02:21:00,55.0,-99.9,30.10,SSW,208,2.0,5.0,-999,-99.99,,,-99.99,,2013-05-12 09:21:00,
2013-05-12 02:33:00,55.0,-99.9,30.10,SE,136,4.0,6.0,-999,-99.99,,,-99.99,,2013-05-12 09:33:00,
2013-05-12 02:43:00,55.0,-99.9,30.10,SSE,151,2.0,5.0,-999,-99.99,,,-99.99,,2013-05-12 09:43:00,
2013-05-12 02:53:00,55.0,-99.9,30.10,SE,140,7.0,9.0,-999,-99.99,,,-99.99,,2013-05-12 09:53:00,
2013-05-12 03:03:00,55.0,-99.9,30.09,SSW,196,1.0,4.0,-999,-99.99,,,-99.99,,2013-05-12 10:03:00,
2013-05-12 03:12:00,55.0,-99.9,30.09,SSW,206,2.0,3.0,-999,-99.99,,,-99.99,,2013-05-12 10:12:00,
2013-05-12 03:23:00,55.0,-99.9,30.09,NNE,13,2.0,4.0,-999,-99.99,,,-99.99,,2013-05-12 10:23:00,
2013-05-12 03:33:00,55.0,-99.9,30.09,North,352,2.0,3.0,-999,-99.99,,,-99.99,,2013-05-12 10:33:00,
2013-05-12 03:42:00,55.0,-99.9,30.09,WSW,258,1.0,2.0,-999,-99.99,,,-99.99,,2013-05-12 10:42:00,
2013-05-12 03:52:00,55.0,-99.9,30.09,West,267,3.0,6.0,-999,-99.99,,,-99.99,,2013-05-12 10:52:00,
2013-05-12 04:03:00,55.0,-99.9,30.09,WSW,243,0.0,3.0,-999,-99.99,,,-99.99,,2013-05-12 11:03:00,
2013-05-12 04:12:00,55.0,-99.9,30.09,NE,42,1.0,1.0,-999,-99.99,,,-99.99,,2013-05-12 11:12:00,
2013-05-12 04:22:00,55.0,-99.9,30.09,NE,38,2.0,2.0,-999,-99.99,,,-99.99,,2013-05-12 11:22:00,
2013-05-12 04:32:00,55.0,-99.9,30.09,WSW,249,3.0,5.0,-999,-99.99,,,-99.99,,2013-05-12 11:32:00,
2013-05-12 04:42:00,55.0,-99.9,30.09,SSW,213,1.0,5.0,-999,-99.99,,,-99.99,,2013-05-12 11:42:00,
2013-05-12 04:52:00,55.0,-99.9,30.09,NW,309,1.0,2.0,-999,-99.99,,,-99.99,,2013-05-12 11:52:00,
2013-05-12 05:02:00,55.0,-99.9,30.09,West,267,4.0,5.0,-999,-99.99,,,-99.99,,2013-05-12 12:02:00,
2013-05-12 05:11:00,55.0,-99.9,30.09,West,267,2.0,5.0,-999,-99.99,,,-99.99,,2013-05-12 12:11:00,
2013-05-12 05:22:00,55.0,-99.9,30.09,WSW,257,3.0,6.0,-999,-99.99,,,-99.99,,2013-05-12 12:22:00,
2013-05-12 05:32:00,55.0,-99.9,30.09,WNW,302,1.0,2.0,-999,-99.99,,,-99.99,,2013-05-12 12:32:00,
2013-05-12 05:42:00,55.0,-99.9,30.09,East,83,1.0,2.0,-999,-99.99,,,-99.99,,2013-05-12 12:42:00,
2013-05-12 05:52:00,54.0,-99.9,30.09,WSW,254,5.0,6.0,-999,-99.99,,,-99.99,,2013-05-12 12:52:00,
2013-05-12 06:02:00,55.0,-99.9,30.09,West,261,3.0,5.0,-999,-99.99,,,-99.99,,2013-05-12 13:02:00,
2013-05-12 06:11:00,55.0,-99.9,30.09,West,259,1.0,3.0,-999,-99.99,,,-99.99,,2013-05-12 13:11:00,
2013-05-12 06:21:00,55.0,-99.9,30.10,SSE,161,2.0,4.0,-999,-99.99,,,-99.99,,2013-05-12 13:21:00,
2013-05-12 06:32:00,55.0,-99.9,30.10,SW,217,0.0,2.0,-999,-99.99,,,-99.99,,2013-05-12 13:32:00,
2013-05-12 06:42:00,55.0,-99.9,30.10,WSW,253,4.0,8.0,-999,-99.99,,,-99.99,,2013-05-12 13:42:00,
2013-05-12 06:52:00,54.0,-99.9,30.11,West,266,5.0,8.0,-999,-99.99,,,-99.99,,2013-05-12 13:52:00,
2013-05-12 07:02:00,54.0,-99.9,30.11,West,281,3.0,5.0,-999,-99.99,,,-99.99,,2013-05-12 14:02:00,
2013-05-12 07:11:00,54.0,-99.9,30.11,West,267,2.0,4.0,-999,-99.99,,,-99.99,,2013-05-12 14:11:00,
2013-05-12 07:22:00,55.0,-99.9,30.11,WNW,282,2.0,3.0,-999,-99.99,,,-99.99,,2013-05-12 14:22:00,
2013-05-12 07:32:00,54.0,-99.9,30.11,WSW,257,4.0,6.0,-999,-99.99,,,-99.99,,2013-05-12 14:32:00,
2013-05-12 07:42:00,54.0,-99.9,30.11,West,270,3.0,5.0,-999,-99.99,,,-99.99,,2013-05-12 14:42:00,
2013-05-12 07:52:00,56.0,-99.9,30.11,ENE,76,1.0,2.0,-999,-99.99,,,-99.99,,2013-05-12 14:52:00,
2013-05-12 08:01:00,56.0,-99.9,30.12,NNE,24,0.0,1.0,-999,-99.99,,,-99.99,,2013-05-12 15:01:00,
2013-05-12 08:11:00,56.0,-99.9,30.12,NNE,18,2.0,3.0,-999,-99.99,,,-99.99,,2013-05-12 15:11:00,
2013-05-12 08:21:00,58.0,-99.9,30.12,ESE,105,1.0,2.0,-999,-99.99,,,-99.99,,2013-05-12 15:21:00,
2013-05-12 08:34:00,57.0,-99.9,30.12,NE,46,2.0,4.0,-999,-99.99,,,-99.99,,2013-05-12 15:34:00,
2013-05-12 08:42:00,57.0,-99.9,30.12,East,83,4.0,4.0,-999,-99.99,,,-99.99,,2013-05-12 15:42:00,
2013-05-12 08:53:00,56.0,-99.9,30.12,NNE,33,3.0,4.0,-999,-99.99,,,-99.99,,2013-05-12 15:53:00,
2013-05-12 09:02:00,57.0,-99.9,30.12,North,357,2.0,5.0,-999,-99.99,,,-99.99,,2013-05-12 16:02:00,
2013-05-12 09:13:00,57.0,-99.9,30.13,North,5,3.0,4.0,-999,-99.99,,,-99.99,,2013-05-12 16:13:00,
2013-05-12 09:23:00,57.0,-99.9,30.13,North,5,2.0,3.0,-999,-99.99,,,-99.99,,2013-05-12 16:23:00,
2013-05-12 09:33:00,57.0,-99.9,30.13,NNE,27,2.0,4.0,-999,-99.99,,,-99.99,,2013-05-12 16:33:00,
2013-05-12 09:42:00,57.0,-99.9,30.13,NNW,345,2.0,4.0,-999,-99.99,,,-99.99,,2013-05-12 16:42:00,
2013-05-12 09:53:00,59.0,-99.9,30.13,SW,236,4.0,7.0,-999,-99.99,,,-99.99,,2013-05-12 16:53:00,
2013-05-12 10:02:00,59.0,-99.9,30.13,ESE,105,2.0,3.0,-999,-99.99,,,-99.99,,2013-05-12 17:02:00,
2013-05-12 10:12:00,59.0,-99.9,30.13,WNW,289,2.0,5.0,-999,-99.99,,,-99.99,,2013-05-12 17:12:00,
2013-05-12 10:22:00,58.0,-99.9,30.13,ENE,66,3.0,4.0,-999,-99.99,,,-99.99,,2013-05-12 17:22:00,
2013-05-12 10:32:00,60.0,-99.9,30.13,West,276,4.0,7.0,-999,-99.99,,,-99.99,,2013-05-12 17:32:00,
2013-05-12 10:42:00,61.0,-99.9,30.13,NW,309,2.0,7.0,-999,-99.99,,,-99.99,,2013-05-12 17:42:00,
2013-05-12 10:53:00,58.0,-99.9,30.13,East,84,5.0,5.0,-999,-99.99,,,-99.99,,2013-05-12 17:53:00,
2013-05-12 11:01:00,59.0,-99.9,30.13,ENE,71,2.0,4.0,-999,-99.99,,,-99.99,,2013-05-12 18:01:00,
2013-05-12 11:12:00,59.0,-99.9,30.13,East,79,4.0,4.0,-999,-99.99,,,-99.99,,2013-05-12 18:12:00,
2013-05-12 11:22:00,59.0,-99.9,30.13,NE,54,4.0,5.0,-999,-99.99,,,-99.99,,2013-05-12 18:22:00,
2013-05-12 11:32:00,59.0,-99.9,30.13,East,82,2.0,3.0,-999,-99.99,,,-99.99,,2013-05-12 18:32:00,
2013-05-12 11:42:00,59.0,-99.9,30.13,ENE,77,2.0,3.0,-999,-99.99,,,-99.99,,2013-05-12 18:42:00,
2013-05-12 11:52:00,59.0,-99.9,30.13,ESE,105,4.0,4.0,-999,-99.99,,,-99.99,,2013-05-12 18:52:00,
2013-05-12 12:01:00,59.0,-99.9,30.13,ESE,112,3.0,4.0,-999,-99.99,,,-99.99,,2013-05-12 19:01:00,
2013-05-12 12:11:00,59.0,-99.9,30.13,ESE,114,3.0,4.0,-999,-99.99,,,-99.99,,2013-05-12 19:11:00,
2013-05-12 12:22:00,64.0,-99.9,30.13,SW,225,3.0,12.0,-999,-99.99,,,-99.99,,2013-05-12 19:22:00,
2013-05-12 12:32:00,62.0,-99.9,30.13,West,259,9.0,13.0,-999,-99.99,,,-99.99,,2013-05-12 19:32:00,
2013-05-12 12:42:00,61.0,-99.9,30.13,WSW,255,10.0,15.0,-999,-99.99,,,-99.99,,2013-05-12 19:42:00,
2013-05-12 12:52:00,61.0,-99.9,30.13,WSW,239,7.0,14.0,-999,-99.99,,,-99.99,,2013-05-12 19:52:00,
2013-05-12 13:02:00,60.0,-99.9,30.13,WSW,255,11.0,14.0,-999,-99.99,,,-99.99,,2013-05-12 20:02:00,
2013-05-12 13:11:00,63.0,-99.9,30.13,WSW,254,6.0,14.0,-999,-99.99,,,-99.99,,2013-05-12 20:11:00,
2013-05-12 13:22:00,62.0,-99.9,30.12,WSW,245,9.0,14.0,-999,-99.99,,,-99.99,,2013-05-12 20:22:00,
2013-05-12 13:32:00,61.0,-99.9,30.12,WSW,242,8.0,15.0,-999,-99.99,,,-99.99,,2013-05-12 20:32:00,
2013-05-12 13:42:00,63.0,-99.9,30.11,SW,230,7.0,11.0,-999,-99.99,,,-99.99,,2013-05-12 20:42:00,
2013-05-12 13:52:00,62.0,-99.9,30.11,WSW,248,8.0,13.0,-999,-99.99,,,-99.99,,2013-05-12 20:52:00,
2013-05-12 14:01:00,62.0,-99.9,30.11,WSW,251,9.0,17.0,-999,-99.99,,,-99.99,,2013-05-12 21:01:00,
2013-05-12 14:11:00,63.0,-99.9,30.11,WSW,244,6.0,14.0,-999,-99.99,,,-99.99,,2013-05-12 21:11:00,
2013-05-12 14:22:00,64.0,-99.9,30.11,SSW,211,4.0,10.0,-999,-99.99,,,-99.99,,2013-05-12 21:22:00,
2013-05-12 14:33:00,62.0,-99.9,30.11,NNW,334,4.0,9.0,-999,-99.99,,,-99.99,,2013-05-12 21:33:00,
2013-05-12 14:43:00,63.0,-99.9,30.10,WNW,288,2.0,9.0,-999,-99.99,,,-99.99,,2013-05-12 21:43:00,
2013-05-12 14:53:00,63.0,-99.9,30.10,WNW,288,2.0,9.0,-999,-99.99,,,-99.99,,2013-05-12 21:53:00,
2013-05-12 15:03:00,63.0,-99.9,30.10,NE,35,1.0,7.0,-999,-99.99,,,-99.99,,2013-05-12 22:03:00,
2013-05-12 15:12:00,65.0,-99.9,30.09,SW,214,6.0,10.0,-999,-99.99,,,-99.99,,2013-05-12 22:12:00,
2013-05-12 15:23:00,66.0,-99.9,30.09,WSW,249,3.0,7.0,-999,-99.99,,,-99.99,,2013-05-12 22:23:00,
2013-05-12 15:33:00,66.0,-99.9,30.09,SW,233,6.0,10.0,-999,-99.99,,,-99.99,,2013-05-12 22:33:00,
2013-05-12 15:42:00,64.0,-99.9,30.08,WSW,247,9.0,15.0,-999,-99.99,,,-99.99,,2013-05-12 22:42:00,
2013-05-12 15:52:00,65.0,-99.9,30.08,WSW,253,8.0,16.0,-999,-99.99,,,-99.99,,2013-05-12 22:52:00,
2013-05-12 16:02:00,65.0,-99.9,30.07,WSW,244,6.0,13.0,-999,-99.99,,,-99.99,,2013-05-12 23:02:00,
2013-05-12 16:12:00,65.0,-99.9,30.07,SW,230,7.0,13.0,-999,-99.99,,,-99.99,,2013-05-12 23:12:00,
2013-05-12 16:22:00,64.0,-99.9,30.06,WSW,252,10.0,14.0,-999,-99.99,,,-99.99,,2013-05-12 23:22:00,
2013-05-12 16:32:00,63.0,-99.9,30.06,West,260,11.0,18.0,-999,-99.99,,,-99.99,,2013-05-12 23:32:00,
2013-05-12 16:42:00,62.0,-99.9,30.06,WSW,256,13.0,22.0,-999,-99.99,,,-99.99,,2013-05-12 23:42:00,
2013-05-12 16:52:00,63.0,-99.9,30.06,West,261,12.0,21.0,-999,-99.99,,,-99.99,,2013-05-12 23:52:00,
2013-05-12 17:01:00,63.0,-99.9,30.06,WSW,258,12.0,19.0,-999,-99.99,,,-99.99,,2013-05-13 00:01:00,
2013-05-12 17:11:00,62.0,-99.9,30.06,West,260,14.0,19.0,-999,-99.99,,,-99.99,,2013-05-13 00:11:00,
2013-05-12 17:22:00,61.0,-99.9,30.05,West,265,13.0,19.0,-999,-99.99,,,-99.99,,2013-05-13 00:22:00,
2013-05-12 17:32:00,62.0,-99.9,30.05,West,262,9.0,18.0,-999,-99.99,,,-99.99,,2013-05-13 00:32:00,
2013-05-12 17:42:00,62.0,-99.9,30.05,West,260,8.0,17.0,-999,-99.99,,,-99.99,,2013-05-13 00:42:00,
2013-05-12 17:52:00,62.0,-99.9,30.05,West,260,8.0,17.0,-999,-99.99,,,-99.99,,2013-05-13 00:52:00,
2013-05-12 18:01:00,61.0,-99.9,30.05,West,263,11.0,19.0,-999,-99.99,,,-99.99,,2013-05-13 01:01:00,
2013-05-12 18:11:00,61.0,-99.9,30.04,West,260,7.0,17.0,-999,-99.99,,,-99.99,,2013-05-13 01:11:00,
2013-05-12 18:22:00,62.0,-99.9,30.04,WSW,244,6.0,11.0,-999,-99.99,,,-99.99,,2013-05-13 01:22:00,
2013-05-12 18:32:00,62.0,-99.9,30.04,WSW,244,7.0,13.0,-999,-99.99,,,-99.99,,2013-05-13 01:32:00,
2013-05-12 18:42:00,62.0,-99.9,30.04,WSW,250,5.0,12.0,-999,-99.99,,,-99.99,,2013-05-13 01:42:00,
2013-05-12 18:52:00,62.0,-99.9,30.03,East,81,3.0,11.0,-999,-99.99,,,-99.99,,2013-05-13 01:52:00,
2013-05-12 19:02:00,62.0,-99.9,30.03,East,79,3.0,7.0,-999,-99.99,,,-99.99,,2013-05-13 02:02:00,
2013-05-12 19:11:00,62.0,-99.9,30.03,NW,325,4.0,9.0,-999,-99.99,,,-99.99,,2013-05-13 02:11:00,
2013-05-12 19:21:00,62.0,-99.9,30.03,WSW,238,8.0,11.0,-999,-99.99,,,-99.99,,2013-05-13 02:21:00,
2013-05-12 19:32:00,61.0,-99.9,30.02,WSW,248,6.0,13.0,-999,-99.99,,,-99.99,,2013-05-13 02:32:00,
2013-05-12 19:42:00,61.0,-99.9,30.03,SW,229,4.0,17.0,-999,-99.99,,,-99.99,,2013-05-13 02:42:00,
2013-05-12 19:52:00,60.0,-99.9,30.02,SW,225,7.0,12.0,-999,-99.99,,,-99.99,,2013-05-13 02:52:00,
2013-05-12 20:02:00,60.0,-99.9,30.02,SSE,159,3.0,12.0,-999,-99.99,,,-99.99,,2013-05-13 03:02:00,
2013-05-12 20:11:00,60.0,-99.9,30.02,SW,227,4.0,9.0,-999,-99.99,,,-99.99,,2013-05-13 03:11:00,
2013-05-12 20:22:00,59.0,-99.9,30.02,SW,236,3.0,9.0,-999,-99.99,,,-99.99,,2013-05-13 03:22:00,
2013-05-12 20:33:00,59.0,-99.9,30.02,SSW,205,2.0,9.0,-999,-99.99,,,-99.99,,2013-05-13 03:33:00,
2013-05-12 20:42:00,59.0,-99.9,30.02,SSE,163,3.0,6.0,-999,-99.99,,,-99.99,,2013-05-13 03:42:00,
2013-05-12 20:53:00,58.0,-99.9,30.02,SW,223,5.0,8.0,-999,-99.99,,,-99.99,,2013-05-13 03:53:00,
2013-05-12 21:03:00,58.0,-99.9,30.02,SW,226,3.0,6.0,-999,-99.99,,,-99.99,,2013-05-13 04:03:00,
2013-05-12 21:12:00,58.0,-99.9,30.02,SW,222,6.0,7.0,-999,-99.99,,,-99.99,,2013-05-13 04:12:00,
2013-05-12 21:23:00,58.0,-99.9,30.02,SSE,158,3.0,6.0,-999,-99.99,,,-99.99,,2013-05-13 04:23:00,
2013-05-12 21:33:00,58.0,-99.9,30.03,SSE,168,3.0,6.0,-999,-99.99,,,-99.99,,2013-05-13 04:33:00,
2013-05-12 21:42:00,58.0,-99.9,30.03,NE,49,1.0,5.0,-999,-99.99,,,-99.99,,2013-05-13 04:42:00,
2013-05-12 21:53:00,57.0,-99.9,30.03,ENE,63,0.0,5.0,-999,-99.99,,,-99.99,,2013-05-13 04:53:00,
2013-05-12 22:02:00,57.0,-99.9,30.04,WSW,248,2.0,8.0,-999,-99.99,,,-99.99,,2013-05-13 05:02:00,
2013-05-12 22:12:00,57.0,-99.9,30.04,West,259,3.0,5.0,-999,-99.99,,,-99.99,,2013-05-13 05:12:00,
2013-05-12 22:22:00,55.0,-99.9,30.04,WSW,258,6.0,11.0,-999,-99.99,,,-99.99,,2013-05-13 05:22:00,
2013-05-12 22:32:00,55.0,-99.9,30.04,SW,225,3.0,9.0,-999,-99.99,,,-99.99,,2013-05-13 05:32:00,
2013-05-12 22:42:00,55.0,-99.9,30.04,WSW,247,2.0,5.0,-999,-99.99,,,-99.99,,2013-05-13 05:42:00,
2013-05-12 22:52:00,55.0,-99.9,30.04,SSW,192,1.0,4.0,-999,-99.99,,,-99.99,,2013-05-13 05:52:00,
2013-05-12 23:01:00,55.0,-99.9,30.04,SSW,192,1.0,4.0,-999,-99.99,,,-99.99,,2013-05-13 06:01:00,
2013-05-12 23:12:00,54.0,-99.9,30.04,SW,234,1.0,6.0,-999,-99.99,,,-99.99,,2013-05-13 06:12:00,
2013-05-12 23:22:00,54.0,-99.9,30.04,WNW,287,3.0,6.0,-999,-99.99,,,-99.99,,2013-05-13 06:22:00,
2013-05-12 23:32:00,54.0,-99.9,30.04,WSW,247,6.0,10.0,-999,-99.99,,,-99.99,,2013-05-13 06:32:00,
2013-05-12 23:42:00,53.0,-99.9,30.04,WSW,245,7.0,14.0,-999,-99.99,,,-99.99,,2013-05-13 06:42:00,
2013-05-12 23:52:00,53.0,-99.9,30.04,WSW,246,7.0,11.0,-999,-99.99,,,-99.99,,2013-05-13 06:52:00,